Simultaneous Nadir Overpasses (SNOs) Predictions

Prediction of SNOs between NOAA-20 and NOAA-19 Satellite Orbit:

Table of predicted SNOs for the next 14.0 days since TLE Epoch: 5/29/2021
Index Date (NOAA-20) Time (NOAA-20) Lat,Lon (NOAA-20) SZA (NOAA-20 ) Date (NOAA-19) Time (NOAA-19) Lat,Lon (NOAA-19) SZA (NOAA-19 ) Distance(km) Time Diff (sec)
1 05/30/2021 15:34:48 78.28, -79.85 57.62 05/30/2021 15:33:36 78.28, -80.01 57.66 3.59 72
2 05/30/2021 16:25:33 -78.30, 87.35 122.36 05/30/2021 16:24:31 -78.30, 87.34 122.34 0.57 62
3 05/30/2021 17:16:19 78.32,-105.46 57.67 05/30/2021 17:15:36 78.30,-105.43 57.66 3.02 43
4 05/30/2021 18:07:03 -78.30, 61.95 122.37 05/30/2021 18:06:31 -78.31, 61.92 122.35 0.87 32
5 05/30/2021 18:57:49 78.33,-130.86 57.66 05/30/2021 18:57:36 78.31,-130.85 57.65 1.88 13
6 05/30/2021 19:48:33 -78.31, 36.56 122.37 05/30/2021 19:48:31 -78.32, 36.50 122.36 2.02 2
7 05/30/2021 20:39:19 78.33,-156.25 57.66 05/30/2021 20:39:36 78.32,-156.27 57.64 0.89 17
8 05/30/2021 21:30:03 -78.31, 11.17 122.38 05/30/2021 21:30:31 -78.33, 11.08 122.36 3.19 28
9 05/30/2021 22:20:49 78.33, 178.36 57.65 05/30/2021 22:21:36 78.33, 178.32 57.64 0.90 47
10 05/30/2021 23:11:34 -78.35, -14.45 122.33 05/30/2021 23:12:31 -78.35, -14.33 122.37 2.62 57
11 05/31/2021 00:02:22 78.45, 152.29 57.81 05/31/2021 00:03:34 78.42, 153.37 57.65 24.25 72



Historial Predications of SNOs between NOAA-20 and NOAA-19
